Time,TemperatureF,DewpointF,PressureIn,WindDirection,WindDirectionDegrees,WindSpeedMPH,WindSpeedGustMPH,Humidity,HourlyPrecipIn,Conditions,Clouds,dailyrainin,SoftwareType,DateUTC
2013-11-21 00:00:00,25.5,19.9,30.42,ENE,68,0.0,0.0,79,0.00,,---,0.00,VWS V14.01,2013-11-21 05:00:00,
2013-11-21 00:01:00,25.5,19.9,30.42,ENE,68,0.0,0.0,79,0.00,,---,0.00,VWS V14.01,2013-11-21 05:01:00,
2013-11-21 00:02:00,25.5,19.9,30.42,ENE,68,0.0,0.0,79,0.00,,---,0.00,VWS V14.01,2013-11-21 05:02:00,
2013-11-21 00:07:00,25.4,20.1,30.42,ENE,68,0.0,0.0,80,0.00,,---,0.00,VWS V14.01,2013-11-21 05:07:00,
2013-11-21 00:12:00,25.4,20.1,30.42,ENE,68,0.0,0.0,80,0.00,,---,0.00,VWS V14.01,2013-11-21 05:12:00,
2013-11-21 00:17:00,25.3,20.0,30.42,ENE,68,0.0,0.0,80,0.00,,---,0.00,VWS V14.01,2013-11-21 05:17:00,
2013-11-21 00:22:00,25.3,20.0,30.42,ENE,68,0.0,0.0,80,0.00,,---,0.00,VWS V14.01,2013-11-21 05:22:00,
2013-11-21 00:27:00,25.2,20.2,30.42,ENE,68,0.0,0.0,81,0.00,,---,0.00,VWS V14.01,2013-11-21 05:27:00,
2013-11-21 00:32:00,25.2,20.2,30.41,ENE,68,0.0,0.0,81,0.00,,---,0.00,VWS V14.01,2013-11-21 05:32:00,
2013-11-21 00:37:00,25.2,20.2,30.42,ENE,68,0.0,0.0,81,0.00,,---,0.00,VWS V14.01,2013-11-21 05:37:00,
2013-11-21 00:42:00,25.1,20.1,30.42,ENE,68,0.0,0.0,81,0.00,,---,0.00,VWS V14.01,2013-11-21 05:42:00,
2013-11-21 00:47:00,25.1,20.4,30.42,ENE,68,0.0,0.0,82,0.00,,---,0.00,VWS V14.01,2013-11-21 05:47:00,
2013-11-21 00:52:00,25.1,20.4,30.42,ENE,68,0.0,0.0,82,0.00,,---,0.00,VWS V14.01,2013-11-21 05:52:00,
2013-11-21 00:57:00,25.0,20.3,30.41,ENE,68,0.0,0.0,82,0.00,,---,0.00,VWS V14.01,2013-11-21 05:57:00,
2013-11-21 01:02:00,25.0,20.3,30.41,ENE,68,0.0,0.0,82,0.00,,---,0.00,VWS V14.01,2013-11-21 06:02:00,
2013-11-21 01:07:00,25.0,20.6,30.41,ENE,68,0.0,0.0,83,0.00,,---,0.00,VWS V14.01,2013-11-21 06:07:00,
2013-11-21 01:12:00,25.1,20.7,30.41,ENE,68,0.0,0.0,83,0.00,,---,0.00,VWS V14.01,2013-11-21 06:12:00,
2013-11-21 01:17:00,25.1,20.7,30.41,ENE,68,0.0,0.0,83,0.00,,---,0.00,VWS V14.01,2013-11-21 06:17:00,
2013-11-21 01:22:00,25.1,21.0,30.41,ENE,68,0.0,0.0,84,0.00,,---,0.00,VWS V14.01,2013-11-21 06:22:00,
2013-11-21 01:27:00,25.2,21.0,30.41,ENE,68,0.0,0.0,84,0.00,,---,0.00,VWS V14.01,2013-11-21 06:27:00,
2013-11-21 01:32:00,25.3,21.1,30.41,ENE,68,0.0,0.0,84,0.00,,---,0.00,VWS V14.01,2013-11-21 06:32:00,
2013-11-21 01:37:00,25.4,21.5,30.41,ENE,68,0.0,0.0,85,0.00,,---,0.00,VWS V14.01,2013-11-21 06:37:00,
2013-11-21 01:42:00,25.4,21.5,30.41,ENE,68,0.0,0.0,85,0.00,,---,0.00,VWS V14.01,2013-11-21 06:42:00,
2013-11-21 01:47:00,25.6,21.7,30.41,ENE,68,0.0,0.0,85,0.00,,---,0.00,VWS V14.01,2013-11-21 06:47:00,
2013-11-21 01:52:00,25.7,22.1,30.42,ENE,68,0.0,0.0,86,0.00,,---,0.00,VWS V14.01,2013-11-21 06:52:00,
2013-11-21 01:57:00,25.8,22.2,30.42,ENE,68,0.0,0.0,86,0.00,,---,0.00,VWS V14.01,2013-11-21 06:57:00,
2013-11-21 02:02:00,26.0,22.4,30.42,ENE,68,0.0,0.0,86,0.00,,---,0.00,VWS V14.01,2013-11-21 07:02:00,
2013-11-21 02:07:00,26.1,22.5,30.42,ENE,68,0.0,0.0,86,0.00,,---,0.00,VWS V14.01,2013-11-21 07:07:00,
2013-11-21 02:12:00,26.2,22.6,30.43,ENE,68,0.0,0.0,86,0.00,,---,0.00,VWS V14.01,2013-11-21 07:12:00,
2013-11-21 02:17:00,26.4,22.8,30.43,ENE,68,0.0,0.0,86,0.00,,---,0.00,VWS V14.01,2013-11-21 07:17:00,
2013-11-21 02:22:00,26.5,22.9,30.43,ENE,68,0.0,0.0,86,0.00,,---,0.00,VWS V14.01,2013-11-21 07:22:00,
2013-11-21 02:27:00,26.6,23.0,30.44,ENE,68,0.0,0.0,86,0.00,,---,0.00,VWS V14.01,2013-11-21 07:27:00,
2013-11-21 02:32:00,26.6,23.3,30.44,ENE,68,0.0,0.0,87,0.00,,---,0.00,VWS V14.01,2013-11-21 07:32:00,
2013-11-21 02:37:00,26.7,23.1,30.44,ENE,68,0.0,0.0,86,0.00,,---,0.00,VWS V14.01,2013-11-21 07:37:00,
2013-11-21 02:42:00,26.7,23.1,30.44,ENE,68,0.0,0.0,86,0.00,,---,0.00,VWS V14.01,2013-11-21 07:42:00,
2013-11-21 02:47:00,26.7,23.1,30.44,ENE,68,0.0,0.0,86,0.00,,---,0.00,VWS V14.01,2013-11-21 07:47:00,
2013-11-21 02:52:00,26.7,23.1,30.44,ENE,68,0.0,0.0,86,0.00,,---,0.00,VWS V14.01,2013-11-21 07:52:00,
2013-11-21 02:57:00,26.7,23.1,30.44,ENE,68,0.0,0.0,86,0.00,,---,0.00,VWS V14.01,2013-11-21 07:57:00,
2013-11-21 03:02:00,26.7,23.1,30.44,ENE,68,0.0,0.0,86,0.00,,---,0.00,VWS V14.01,2013-11-21 08:02:00,
2013-11-21 03:07:00,26.6,23.0,30.44,ENE,68,0.0,0.0,86,0.00,,---,0.00,VWS V14.01,2013-11-21 08:07:00,
2013-11-21 03:12:00,26.6,23.0,30.44,ENE,68,0.0,0.0,86,0.00,,---,0.00,VWS V14.01,2013-11-21 08:12:00,
2013-11-21 03:17:00,26.6,23.0,30.44,ENE,68,0.0,0.0,86,0.00,,---,0.00,VWS V14.01,2013-11-21 08:17:00,
2013-11-21 03:22:00,26.5,22.9,30.44,ENE,68,0.0,0.0,86,0.00,,---,0.00,VWS V14.01,2013-11-21 08:22:00,
2013-11-21 03:27:00,26.4,22.8,30.44,ENE,68,0.0,0.0,86,0.00,,---,0.00,VWS V14.01,2013-11-21 08:27:00,
2013-11-21 03:32:00,26.3,22.7,30.43,ENE,68,0.0,0.0,86,0.00,,---,0.00,VWS V14.01,2013-11-21 08:32:00,
2013-11-21 03:36:00,26.3,22.7,30.43,ENE,68,0.0,0.0,86,0.00,,---,0.00,VWS V14.01,2013-11-21 08:36:00,
2013-11-21 03:41:00,26.2,22.6,30.43,ENE,68,0.0,0.0,86,0.00,,---,0.00,VWS V14.01,2013-11-21 08:41:00,
2013-11-21 03:46:00,26.3,22.7,30.43,ENE,68,0.0,0.0,86,0.00,,---,0.00,VWS V14.01,2013-11-21 08:46:00,
2013-11-21 03:51:00,26.2,22.6,30.43,ENE,68,0.0,0.0,86,0.00,,---,0.00,VWS V14.01,2013-11-21 08:51:00,
2013-11-21 03:57:00,26.2,22.6,30.43,ENE,68,0.0,0.0,86,0.00,,---,0.00,VWS V14.01,2013-11-21 08:57:00,
2013-11-21 04:02:00,26.2,22.6,30.43,ENE,68,0.0,0.0,86,0.00,,---,0.00,VWS V14.01,2013-11-21 09:02:00,
2013-11-21 04:07:00,26.2,22.9,30.43,ENE,68,0.0,0.0,87,0.00,,---,0.00,VWS V14.01,2013-11-21 09:07:00,
2013-11-21 04:12:00,26.2,22.9,30.43,ENE,68,0.0,0.0,87,0.00,,---,0.00,VWS V14.01,2013-11-21 09:12:00,
2013-11-21 04:17:00,26.2,22.9,30.42,ENE,68,0.0,0.0,87,0.00,,---,0.00,VWS V14.01,2013-11-21 09:17:00,
2013-11-21 04:22:00,26.2,22.9,30.43,ENE,68,0.0,0.0,87,0.00,,---,0.00,VWS V14.01,2013-11-21 09:22:00,
2013-11-21 04:27:00,26.2,22.9,30.42,ENE,68,0.0,0.0,87,0.00,,---,0.00,VWS V14.01,2013-11-21 09:27:00,
2013-11-21 04:32:00,26.2,22.9,30.42,ENE,68,0.0,0.0,87,0.00,,---,0.00,VWS V14.01,2013-11-21 09:32:00,
2013-11-21 04:37:00,26.2,22.9,30.42,ENE,68,0.0,0.0,87,0.00,,---,0.00,VWS V14.01,2013-11-21 09:37:00,
2013-11-21 04:42:00,26.1,22.8,30.42,ENE,68,0.0,0.0,87,0.00,,---,0.00,VWS V14.01,2013-11-21 09:42:00,
2013-11-21 04:47:00,26.1,22.8,30.42,ENE,68,0.0,0.0,87,0.00,,---,0.00,VWS V14.01,2013-11-21 09:47:00,
2013-11-21 04:52:00,26.0,22.7,30.42,ENE,68,0.0,0.0,87,0.00,,---,0.00,VWS V14.01,2013-11-21 09:52:00,
2013-11-21 04:57:00,26.0,22.7,30.42,ENE,68,0.0,0.0,87,0.00,,---,0.00,VWS V14.01,2013-11-21 09:57:00,
2013-11-21 05:02:00,25.9,22.6,30.42,ENE,68,0.0,0.0,87,0.00,,---,0.00,VWS V14.01,2013-11-21 10:02:00,
2013-11-21 05:07:00,25.8,22.5,30.42,ENE,68,0.0,0.0,87,0.00,,---,0.00,VWS V14.01,2013-11-21 10:07:00,
2013-11-21 05:12:00,25.7,22.4,30.42,ENE,68,0.0,0.0,87,0.00,,---,0.00,VWS V14.01,2013-11-21 10:12:00,
2013-11-21 05:17:00,25.7,22.4,30.42,ENE,68,0.0,0.0,87,0.00,,---,0.00,VWS V14.01,2013-11-21 10:17:00,
2013-11-21 05:22:00,25.5,22.2,30.42,ENE,68,0.0,0.0,87,0.00,,---,0.00,VWS V14.01,2013-11-21 10:22:00,
2013-11-21 05:27:00,25.4,22.1,30.42,ENE,68,0.0,0.0,87,0.00,,---,0.00,VWS V14.01,2013-11-21 10:27:00,
2013-11-21 05:32:00,25.3,21.7,30.42,ENE,68,0.0,0.0,86,0.00,,---,0.00,VWS V14.01,2013-11-21 10:32:00,
2013-11-21 05:37:00,25.2,21.6,30.42,ENE,68,0.0,0.0,86,0.00,,---,0.00,VWS V14.01,2013-11-21 10:37:00,
2013-11-21 05:42:00,25.2,21.6,30.42,ENE,68,0.0,0.0,86,0.00,,---,0.00,VWS V14.01,2013-11-21 10:42:00,
2013-11-21 05:47:00,25.0,21.7,30.43,ENE,68,0.0,0.0,87,0.00,,---,0.00,VWS V14.01,2013-11-21 10:47:00,
2013-11-21 05:52:00,24.9,21.6,30.43,ENE,68,0.0,0.0,87,0.00,,---,0.00,VWS V14.01,2013-11-21 10:52:00,
2013-11-21 05:57:00,24.8,21.5,30.43,ENE,68,0.0,0.0,87,0.00,,---,0.00,VWS V14.01,2013-11-21 10:57:00,
2013-11-21 06:02:00,24.7,21.4,30.43,ENE,68,0.0,0.0,87,0.00,,---,0.00,VWS V14.01,2013-11-21 11:02:00,
2013-11-21 06:07:00,24.7,21.4,30.42,ENE,68,0.0,0.0,87,0.00,,---,0.00,VWS V14.01,2013-11-21 11:07:00,
2013-11-21 06:12:00,24.6,21.3,30.43,ENE,68,0.0,0.0,87,0.00,,---,0.00,VWS V14.01,2013-11-21 11:12:00,
2013-11-21 06:17:00,24.6,21.3,30.43,ENE,68,0.0,0.0,87,0.00,,---,0.00,VWS V14.01,2013-11-21 11:17:00,
2013-11-21 06:22:00,24.5,21.2,30.43,ENE,68,0.0,0.0,87,0.00,,---,0.00,VWS V14.01,2013-11-21 11:22:00,
2013-11-21 06:27:00,24.5,21.2,30.43,ENE,68,0.0,0.0,87,0.00,,---,0.00,VWS V14.01,2013-11-21 11:27:00,
2013-11-21 06:32:00,24.6,21.6,30.44,ENE,68,0.0,0.0,88,0.00,,---,0.00,VWS V14.01,2013-11-21 11:32:00,
2013-11-21 06:37:00,24.6,21.6,30.44,ENE,68,0.0,0.0,88,0.00,,---,0.00,VWS V14.01,2013-11-21 11:37:00,
2013-11-21 06:42:00,24.7,21.7,30.44,ENE,68,0.0,0.0,88,0.00,,---,0.00,VWS V14.01,2013-11-21 11:42:00,
2013-11-21 06:47:00,24.8,21.8,30.45,ENE,68,0.0,0.0,88,0.00,,---,0.00,VWS V14.01,2013-11-21 11:47:00,
2013-11-21 06:52:00,24.9,22.1,30.45,ENE,68,0.0,0.0,89,0.00,,---,0.00,VWS V14.01,2013-11-21 11:52:00,
2013-11-21 06:57:00,25.0,22.2,30.46,ENE,68,0.0,0.0,89,0.00,,---,0.00,VWS V14.01,2013-11-21 11:57:00,
2013-11-21 07:02:00,25.2,22.4,30.46,ENE,68,0.0,0.0,89,0.00,,---,0.00,VWS V14.01,2013-11-21 12:02:00,
2013-11-21 07:07:00,25.3,22.5,30.46,ENE,68,0.0,0.0,89,0.00,,---,0.00,VWS V14.01,2013-11-21 12:07:00,
2013-11-21 07:12:00,25.4,22.6,30.46,ENE,68,0.0,0.0,89,0.00,,---,0.00,VWS V14.01,2013-11-21 12:12:00,
2013-11-21 07:17:00,25.5,22.7,30.47,ENE,68,0.0,0.0,89,0.00,,---,0.00,VWS V14.01,2013-11-21 12:17:00,
2013-11-21 07:22:00,25.6,23.1,30.46,ENE,68,0.0,0.0,90,0.00,,---,0.00,VWS V14.01,2013-11-21 12:22:00,
2013-11-21 07:27:00,25.7,23.2,30.46,ENE,68,0.0,0.0,90,0.00,,---,0.00,VWS V14.01,2013-11-21 12:27:00,
2013-11-21 07:32:00,25.8,23.3,30.46,ENE,68,0.0,0.0,90,0.00,,---,0.00,VWS V14.01,2013-11-21 12:32:00,
2013-11-21 07:37:00,25.9,23.4,30.46,ENE,68,0.0,0.0,90,0.00,,---,0.00,VWS V14.01,2013-11-21 12:37:00,
2013-11-21 07:42:00,26.0,23.5,30.46,ENE,68,0.0,0.0,90,0.00,,---,0.00,VWS V14.01,2013-11-21 12:42:00,
2013-11-21 07:47:00,26.2,23.7,30.46,ENE,68,0.0,0.0,90,0.00,,---,0.00,VWS V14.01,2013-11-21 12:47:00,
2013-11-21 07:52:00,26.3,23.8,30.46,ENE,68,0.0,0.0,90,0.00,,---,0.00,VWS V14.01,2013-11-21 12:52:00,
2013-11-21 07:57:00,26.5,24.2,30.45,ENE,68,0.0,0.0,91,0.00,,---,0.00,VWS V14.01,2013-11-21 12:57:00,
2013-11-21 08:02:00,26.6,24.3,30.46,ENE,68,0.0,0.0,91,0.00,,---,0.00,VWS V14.01,2013-11-21 13:02:00,
2013-11-21 08:07:00,26.8,24.5,30.46,ENE,68,0.0,0.0,91,0.00,,---,0.00,VWS V14.01,2013-11-21 13:07:00,
2013-11-21 08:12:00,27.0,24.7,30.46,ENE,68,0.0,0.0,91,0.00,,---,0.00,VWS V14.01,2013-11-21 13:12:00,
2013-11-21 08:17:00,27.1,24.8,30.46,ENE,68,0.0,0.0,91,0.00,,---,0.00,VWS V14.01,2013-11-21 13:17:00,
2013-11-21 08:22:00,27.3,25.0,30.45,ENE,68,0.0,0.0,91,0.00,,---,0.00,VWS V14.01,2013-11-21 13:22:00,
2013-11-21 08:27:00,27.5,25.2,30.45,ENE,68,0.0,0.0,91,0.00,,---,0.00,VWS V14.01,2013-11-21 13:27:00,
2013-11-21 08:32:00,27.8,25.5,30.44,ENE,68,0.0,0.0,91,0.00,,---,0.00,VWS V14.01,2013-11-21 13:32:00,
2013-11-21 08:37:00,28.0,25.7,30.44,ENE,68,0.0,0.0,91,0.00,,---,0.00,VWS V14.01,2013-11-21 13:37:00,
2013-11-21 08:42:00,28.2,26.2,30.44,ENE,68,0.0,0.0,92,0.00,,---,0.00,VWS V14.01,2013-11-21 13:42:00,
2013-11-21 08:47:00,28.4,26.4,30.44,ENE,68,0.0,0.0,92,0.00,,---,0.00,VWS V14.01,2013-11-21 13:47:00,
2013-11-21 08:52:00,28.7,26.7,30.44,ENE,68,0.0,0.0,92,0.00,,---,0.00,VWS V14.01,2013-11-21 13:52:00,
2013-11-21 08:57:00,29.0,27.0,30.44,ENE,68,0.0,0.0,92,0.00,,---,0.00,VWS V14.01,2013-11-21 13:57:00,
2013-11-21 09:01:00,29.3,27.3,30.44,ENE,68,0.0,0.0,92,0.00,,---,0.00,VWS V14.01,2013-11-21 14:01:00,
2013-11-21 09:06:00,29.7,27.7,30.43,ENE,68,0.0,0.0,92,0.00,,---,0.00,VWS V14.01,2013-11-21 14:06:00,
2013-11-21 09:12:00,30.0,28.0,30.43,ENE,68,0.0,0.0,92,0.00,,---,0.00,VWS V14.01,2013-11-21 14:12:00,
2013-11-21 09:17:00,30.6,28.6,30.42,ENE,68,0.0,0.0,92,0.00,,---,0.00,VWS V14.01,2013-11-21 14:17:00,
2013-11-21 09:21:00,31.3,29.5,30.42,ENE,68,0.0,0.0,93,0.00,,---,0.00,VWS V14.01,2013-11-21 14:21:00,
2013-11-21 09:27:00,32.4,30.6,30.42,ENE,69,0.0,2.0,93,0.00,,---,0.00,VWS V14.01,2013-11-21 14:27:00,
2013-11-21 09:31:00,33.3,31.5,30.43,ENE,69,0.0,0.0,93,0.00,,---,0.00,VWS V14.01,2013-11-21 14:31:00,
2013-11-21 09:36:00,33.9,32.1,30.43,ENE,69,0.0,0.0,93,0.00,,---,0.00,VWS V14.01,2013-11-21 14:36:00,
2013-11-21 09:41:00,34.6,32.8,30.43,ENE,69,0.0,0.0,93,0.00,,---,0.00,VWS V14.01,2013-11-21 14:41:00,
2013-11-21 09:46:00,35.3,33.2,30.43,ENE,69,0.0,0.0,92,0.00,,---,0.00,VWS V14.01,2013-11-21 14:46:00,
2013-11-21 09:51:00,36.1,33.7,30.43,ENE,70,0.0,1.0,91,0.00,,---,0.00,VWS V14.01,2013-11-21 14:51:00,
2013-11-21 09:56:00,36.8,34.2,30.43,East,79,0.0,0.0,90,0.00,,---,0.00,VWS V14.01,2013-11-21 14:56:00,
2013-11-21 10:01:00,37.3,34.4,30.43,East,79,0.0,1.0,89,0.00,,---,0.00,VWS V14.01,2013-11-21 15:01:00,
2013-11-21 10:06:00,37.9,34.1,30.43,East,80,0.0,1.0,86,0.00,,---,0.00,VWS V14.01,2013-11-21 15:06:00,
2013-11-21 10:11:00,38.8,34.7,30.44,East,80,0.0,0.0,85,0.00,,---,0.00,VWS V14.01,2013-11-21 15:11:00,
2013-11-21 10:16:00,39.9,34.9,30.43,SE,131,1.0,2.0,82,0.00,,---,0.00,VWS V14.01,2013-11-21 15:16:00,
2013-11-21 10:21:00,40.9,34.6,30.44,ESE,111,0.0,1.0,78,0.00,,---,0.00,VWS V14.01,2013-11-21 15:21:00,
2013-11-21 10:26:00,42.0,35.0,30.44,South,188,0.0,2.0,76,0.00,,---,0.00,VWS V14.01,2013-11-21 15:26:00,
2013-11-21 10:31:00,43.2,34.8,30.43,South,181,0.0,4.0,72,0.00,,---,0.00,VWS V14.01,2013-11-21 15:31:00,
2013-11-21 10:36:00,44.1,34.6,30.44,SSW,202,0.0,2.0,69,0.00,,---,0.00,VWS V14.01,2013-11-21 15:36:00,
2013-11-21 10:41:00,44.7,34.4,30.43,SSE,161,1.0,4.0,67,0.00,,---,0.00,VWS V14.01,2013-11-21 15:41:00,
2013-11-21 10:46:00,45.5,35.2,30.44,SSE,168,1.0,2.0,67,0.00,,---,0.00,VWS V14.01,2013-11-21 15:46:00,
2013-11-21 10:51:00,46.1,34.2,30.43,SE,146,2.0,4.0,63,0.00,,---,0.00,VWS V14.01,2013-11-21 15:51:00,
2013-11-21 10:56:00,46.6,34.7,30.43,SSE,157,0.0,4.0,63,0.00,,---,0.00,VWS V14.01,2013-11-21 15:56:00,
2013-11-21 11:01:00,47.0,35.5,30.42,SSE,157,0.0,1.0,64,0.00,,---,0.00,VWS V14.01,2013-11-21 16:01:00,
2013-11-21 11:06:00,47.4,35.5,30.42,SSE,157,0.0,2.0,63,0.00,,---,0.00,VWS V14.01,2013-11-21 16:06:00,
2013-11-21 11:11:00,47.7,35.7,30.42,SSW,204,0.0,3.0,63,0.00,,---,0.00,VWS V14.01,2013-11-21 16:11:00,
2013-11-21 11:16:00,47.9,35.5,30.42,South,187,0.0,3.0,62,0.00,,---,0.00,VWS V14.01,2013-11-21 16:16:00,
2013-11-21 11:21:00,48.2,35.4,30.42,SE,136,0.0,5.0,61,0.00,,---,0.00,VWS V14.01,2013-11-21 16:21:00,
2013-11-21 11:26:00,48.5,36.1,30.42,SSW,209,1.0,3.0,62,0.00,,---,0.00,VWS V14.01,2013-11-21 16:26:00,
2013-11-21 11:31:00,48.8,35.5,30.40,SSW,196,0.0,4.0,60,0.00,,---,0.00,VWS V14.01,2013-11-21 16:31:00,
2013-11-21 11:36:00,49.1,36.2,30.40,South,182,0.0,4.0,61,0.00,,---,0.00,VWS V14.01,2013-11-21 16:36:00,
2013-11-21 11:41:00,49.4,36.5,30.40,South,184,0.0,2.0,61,0.00,,---,0.00,VWS V14.01,2013-11-21 16:41:00,
2013-11-21 11:46:00,49.7,36.4,30.39,South,184,0.0,3.0,60,0.00,,---,0.00,VWS V14.01,2013-11-21 16:46:00,
2013-11-21 11:51:00,50.0,36.7,30.39,SE,146,1.0,2.0,60,0.00,,---,0.00,VWS V14.01,2013-11-21 16:51:00,
2013-11-21 11:56:00,50.4,37.0,30.38,SSW,194,0.0,3.0,60,0.00,,---,0.00,VWS V14.01,2013-11-21 16:56:00,
2013-11-21 12:01:00,50.6,36.8,30.38,South,188,3.0,3.0,59,0.00,,---,0.00,VWS V14.01,2013-11-21 17:01:00,
2013-11-21 12:06:00,51.0,36.8,30.39,SSW,198,3.0,5.0,58,0.00,,---,0.00,VWS V14.01,2013-11-21 17:06:00,
2013-11-21 12:11:00,51.4,37.6,30.38,West,259,1.0,4.0,59,0.00,,---,0.00,VWS V14.01,2013-11-21 17:11:00,
2013-11-21 12:16:00,51.7,37.8,30.38,SSW,197,4.0,4.0,59,0.00,,---,0.00,VWS V14.01,2013-11-21 17:16:00,
2013-11-21 12:21:00,52.1,37.8,30.38,SSW,192,1.0,4.0,58,0.00,,---,0.00,VWS V14.01,2013-11-21 17:21:00,
2013-11-21 12:26:00,52.4,37.6,30.38,South,180,4.0,4.0,57,0.00,,---,0.00,VWS V14.01,2013-11-21 17:26:00,
2013-11-21 12:31:00,52.8,38.0,30.38,SSW,198,3.0,4.0,57,0.00,,---,0.00,VWS V14.01,2013-11-21 17:31:00,
2013-11-21 12:36:00,53.1,37.8,30.37,SSE,165,3.0,4.0,56,0.00,,---,0.00,VWS V14.01,2013-11-21 17:36:00,
2013-11-21 12:41:00,53.2,37.5,30.37,ENE,73,0.0,3.0,55,0.00,,---,0.00,VWS V14.01,2013-11-21 17:41:00,
2013-11-21 12:46:00,53.5,38.7,30.37,SSW,199,0.0,3.0,57,0.00,,---,0.00,VWS V14.01,2013-11-21 17:46:00,
2013-11-21 12:51:00,54.0,38.7,30.37,SSE,151,0.0,3.0,56,0.00,,---,0.00,VWS V14.01,2013-11-21 17:51:00,
2013-11-21 12:56:00,54.6,39.2,30.37,SW,225,1.0,3.0,56,0.00,,---,0.00,VWS V14.01,2013-11-21 17:56:00,
2013-11-21 13:01:00,55.2,39.3,30.36,SW,225,2.0,4.0,55,0.00,,---,0.00,VWS V14.01,2013-11-21 18:01:00,
2013-11-21 13:06:00,55.9,39.5,30.36,SW,225,0.0,2.0,54,0.00,,---,0.00,VWS V14.01,2013-11-21 18:06:00,
2013-11-21 13:11:00,56.7,40.3,30.36,SSE,161,0.0,5.0,54,0.00,,---,0.00,VWS V14.01,2013-11-21 18:11:00,
2013-11-21 13:16:00,57.3,40.3,30.37,SSW,213,0.0,2.0,53,0.00,,---,0.00,VWS V14.01,2013-11-21 18:16:00,
2013-11-21 13:21:00,57.9,39.9,30.36,SSE,153,2.0,4.0,51,0.00,,---,0.00,VWS V14.01,2013-11-21 18:21:00,
2013-11-21 13:26:00,58.3,39.8,30.36,ENE,61,0.0,2.0,50,0.00,,---,0.00,VWS V14.01,2013-11-21 18:26:00,
2013-11-21 13:31:00,58.7,40.1,30.35,SE,145,1.0,3.0,50,0.00,,---,0.00,VWS V14.01,2013-11-21 18:31:00,
2013-11-21 13:36:00,59.0,39.4,30.35,ESE,111,0.0,3.0,48,0.00,,---,0.00,VWS V14.01,2013-11-21 18:36:00,
2013-11-21 13:41:00,58.9,39.3,30.35,South,169,0.0,1.0,48,0.00,,---,0.00,VWS V14.01,2013-11-21 18:41:00,
2013-11-21 13:46:00,58.9,40.3,30.34,East,92,2.0,2.0,50,0.00,,---,0.00,VWS V14.01,2013-11-21 18:46:00,
2013-11-21 13:51:00,59.1,40.0,30.34,SSW,202,0.0,3.0,49,0.00,,---,0.00,VWS V14.01,2013-11-21 18:51:00,
2013-11-21 13:56:00,59.4,40.2,30.34,SW,219,0.0,4.0,49,0.00,,---,0.00,VWS V14.01,2013-11-21 18:56:00,
2013-11-21 14:01:00,59.9,40.2,30.34,SW,219,0.0,1.0,48,0.00,,---,0.00,VWS V14.01,2013-11-21 19:01:00,
2013-11-21 14:06:00,60.3,40.5,30.34,SW,218,3.0,3.0,48,0.00,,---,0.00,VWS V14.01,2013-11-21 19:06:00,
2013-11-21 14:11:00,60.2,39.9,30.34,SSW,197,0.0,3.0,47,0.00,,---,0.00,VWS V14.01,2013-11-21 19:11:00,
2013-11-21 14:16:00,60.1,39.8,30.33,SSW,195,0.0,1.0,47,0.00,,---,0.00,VWS V14.01,2013-11-21 19:16:00,
2013-11-21 14:21:00,60.0,40.3,30.33,SSW,195,0.0,0.0,48,0.00,,---,0.00,VWS V14.01,2013-11-21 19:21:00,
2013-11-21 14:26:00,59.8,40.1,30.33,NE,39,0.0,1.0,48,0.00,,---,0.00,VWS V14.01,2013-11-21 19:26:00,
2013-11-21 14:31:00,59.8,39.5,30.33,NW,304,2.0,2.0,47,0.00,,---,0.00,VWS V14.01,2013-11-21 19:31:00,
2013-11-21 14:36:00,59.7,39.5,30.33,SSW,209,0.0,1.0,47,0.00,,---,0.00,VWS V14.01,2013-11-21 19:36:00,
2013-11-21 14:41:00,59.6,39.4,30.33,SW,235,0.0,3.0,47,0.00,,---,0.00,VWS V14.01,2013-11-21 19:41:00,
2013-11-21 14:46:00,59.6,39.9,30.32,South,179,2.0,3.0,48,0.00,,---,0.00,VWS V14.01,2013-11-21 19:46:00,
2013-11-21 14:51:00,59.7,40.0,30.32,SSW,198,0.0,2.0,48,0.00,,---,0.00,VWS V14.01,2013-11-21 19:51:00,
2013-11-21 14:56:00,59.6,39.4,30.32,SSE,167,3.0,5.0,47,0.00,,---,0.00,VWS V14.01,2013-11-21 19:56:00,
2013-11-21 15:01:00,59.4,39.2,30.32,SSE,158,4.0,4.0,47,0.00,,---,0.00,VWS V14.01,2013-11-21 20:01:00,
2013-11-21 15:06:00,59.1,39.5,30.32,South,172,0.0,3.0,48,0.00,,---,0.00,VWS V14.01,2013-11-21 20:06:00,
2013-11-21 15:11:00,58.8,39.7,30.32,SE,128,0.0,3.0,49,0.00,,---,0.00,VWS V14.01,2013-11-21 20:11:00,
2013-11-21 15:16:00,58.6,39.5,30.32,SE,131,0.0,1.0,49,0.00,,---,0.00,VWS V14.01,2013-11-21 20:16:00,
2013-11-21 15:21:00,58.5,39.9,30.32,SE,134,0.0,1.0,50,0.00,,---,0.00,VWS V14.01,2013-11-21 20:21:00,
2013-11-21 15:26:00,58.4,40.4,30.32,SE,134,0.0,0.0,51,0.00,,---,0.00,VWS V14.01,2013-11-21 20:26:00,
2013-11-21 15:31:00,58.2,39.7,30.32,SE,134,0.0,0.0,50,0.00,,---,0.00,VWS V14.01,2013-11-21 20:31:00,
2013-11-21 15:36:00,58.0,39.5,30.32,SSW,196,0.0,1.0,50,0.00,,---,0.00,VWS V14.01,2013-11-21 20:36:00,
2013-11-21 15:41:00,57.8,39.3,30.32,SSW,196,0.0,0.0,50,0.00,,---,0.00,VWS V14.01,2013-11-21 20:41:00,
2013-11-21 15:46:00,57.7,40.2,30.32,SSW,196,0.0,3.0,52,0.00,,---,0.00,VWS V14.01,2013-11-21 20:46:00,
2013-11-21 15:51:00,57.6,40.1,30.32,SSW,196,0.0,1.0,52,0.00,,---,0.00,VWS V14.01,2013-11-21 20:51:00,
2013-11-21 15:56:00,57.4,39.4,30.32,SSW,196,0.0,0.0,51,0.00,,---,0.00,VWS V14.01,2013-11-21 20:56:00,
2013-11-21 16:01:00,57.3,39.8,30.32,SSW,196,0.0,0.0,52,0.00,,---,0.00,VWS V14.01,2013-11-21 21:01:00,
2013-11-21 16:06:00,57.3,39.8,30.32,SSW,196,0.0,0.0,52,0.00,,---,0.00,VWS V14.01,2013-11-21 21:06:00,
2013-11-21 16:11:00,57.2,40.2,30.32,SSW,196,0.0,0.0,53,0.00,,---,0.00,VWS V14.01,2013-11-21 21:11:00,
2013-11-21 16:16:00,57.1,39.7,30.32,SSW,196,0.0,0.0,52,0.00,,---,0.00,VWS V14.01,2013-11-21 21:16:00,
2013-11-21 16:21:00,57.1,40.6,30.31,SSW,196,0.0,0.0,54,0.00,,---,0.00,VWS V14.01,2013-11-21 21:21:00,
2013-11-21 16:26:00,57.0,41.0,30.32,SSW,196,0.0,0.0,55,0.00,,---,0.00,VWS V14.01,2013-11-21 21:26:00,
2013-11-21 16:31:00,56.9,41.4,30.32,SSW,196,0.0,0.0,56,0.00,,---,0.00,VWS V14.01,2013-11-21 21:31:00,
2013-11-21 16:36:00,56.8,41.3,30.31,SSW,196,0.0,0.0,56,0.00,,---,0.00,VWS V14.01,2013-11-21 21:36:00,
2013-11-21 16:41:00,56.7,41.7,30.31,SSW,196,0.0,0.0,57,0.00,,---,0.00,VWS V14.01,2013-11-21 21:41:00,
2013-11-21 16:46:00,56.6,41.6,30.31,SSW,196,0.0,0.0,57,0.00,,---,0.00,VWS V14.01,2013-11-21 21:46:00,
2013-11-21 16:51:00,56.4,41.8,30.31,SSW,196,0.0,0.0,58,0.00,,---,0.00,VWS V14.01,2013-11-21 21:51:00,
2013-11-21 16:56:00,56.2,42.1,30.31,SSW,196,0.0,0.0,59,0.00,,---,0.00,VWS V14.01,2013-11-21 21:56:00,
2013-11-21 17:01:00,55.9,41.8,30.31,SSW,196,0.0,0.0,59,0.00,,---,0.00,VWS V14.01,2013-11-21 22:01:00,
2013-11-21 17:06:00,55.6,42.0,30.31,SSW,196,0.0,0.0,60,0.00,,---,0.00,VWS V14.01,2013-11-21 22:06:00,
2013-11-21 17:11:00,55.2,42.0,30.31,SSW,196,0.0,0.0,61,0.00,,---,0.00,VWS V14.01,2013-11-21 22:11:00,
2013-11-21 17:16:00,54.8,42.0,30.31,SSW,196,0.0,0.0,62,0.00,,---,0.00,VWS V14.01,2013-11-21 22:16:00,
2013-11-21 17:21:00,54.5,42.2,30.31,SSW,196,0.0,0.0,63,0.00,,---,0.00,VWS V14.01,2013-11-21 22:21:00,
2013-11-21 17:26:00,54.1,41.8,30.31,SSW,196,0.0,0.0,63,0.00,,---,0.00,VWS V14.01,2013-11-21 22:26:00,
2013-11-21 17:31:00,53.8,41.9,30.31,SSW,196,0.0,0.0,64,0.00,,---,0.00,VWS V14.01,2013-11-21 22:31:00,
2013-11-21 17:36:00,53.5,41.6,30.32,SSW,196,0.0,0.0,64,0.00,,---,0.00,VWS V14.01,2013-11-21 22:36:00,
2013-11-21 17:41:00,53.2,41.8,30.32,SSW,196,0.0,0.0,65,0.00,,---,0.00,VWS V14.01,2013-11-21 22:41:00,
2013-11-21 17:46:00,52.9,41.9,30.32,SSW,196,0.0,0.0,66,0.00,,---,0.00,VWS V14.01,2013-11-21 22:46:00,
2013-11-21 17:51:00,52.6,42.0,30.31,SSW,196,0.0,0.0,67,0.00,,---,0.00,VWS V14.01,2013-11-21 22:51:00,
2013-11-21 17:56:00,52.4,41.8,30.31,SSW,196,0.0,0.0,67,0.00,,---,0.00,VWS V14.01,2013-11-21 22:56:00,
2013-11-21 18:01:00,52.1,41.9,30.32,SSW,196,0.0,0.0,68,0.00,,---,0.00,VWS V14.01,2013-11-21 23:01:00,
2013-11-21 18:06:00,51.9,41.7,30.32,SSW,196,0.0,0.0,68,0.00,,---,0.00,VWS V14.01,2013-11-21 23:06:00,
2013-11-21 18:11:00,51.7,41.5,30.31,SSW,196,0.0,0.0,68,0.00,,---,0.00,VWS V14.01,2013-11-21 23:11:00,
2013-11-21 18:16:00,51.5,41.3,30.31,SSW,196,0.0,0.0,68,0.00,,---,0.00,VWS V14.01,2013-11-21 23:16:00,
2013-11-21 18:21:00,51.4,41.6,30.31,SSW,196,0.0,0.0,69,0.00,,---,0.00,VWS V14.01,2013-11-21 23:21:00,
2013-11-21 18:26:00,51.2,41.4,30.31,SSW,196,0.0,0.0,69,0.00,,---,0.00,VWS V14.01,2013-11-21 23:26:00,
2013-11-21 18:31:00,51.1,41.7,30.31,SSW,196,0.0,0.0,70,0.00,,---,0.00,VWS V14.01,2013-11-21 23:31:00,
2013-11-21 18:36:00,51.0,41.6,30.31,SSW,196,0.0,0.0,70,0.00,,---,0.00,VWS V14.01,2013-11-21 23:36:00,
2013-11-21 18:41:00,50.8,41.8,30.31,SSW,196,0.0,0.0,71,0.00,,---,0.00,VWS V14.01,2013-11-21 23:41:00,
2013-11-21 18:46:00,50.7,41.7,30.30,SSW,196,0.0,0.0,71,0.00,,---,0.00,VWS V14.01,2013-11-21 23:46:00,
2013-11-21 18:51:00,50.6,41.6,30.30,SSW,196,0.0,0.0,71,0.00,,---,0.00,VWS V14.01,2013-11-21 23:51:00,
2013-11-21 18:56:00,50.5,41.5,30.30,SSW,196,0.0,0.0,71,0.00,,---,0.00,VWS V14.01,2013-11-21 23:56:00,
2013-11-21 19:01:00,50.4,41.7,30.30,SSW,196,0.0,0.0,72,0.00,,---,0.00,VWS V14.01,2013-11-22 00:01:00,
2013-11-21 19:06:00,50.3,41.6,30.30,SSW,196,0.0,0.0,72,0.00,,---,0.00,VWS V14.01,2013-11-22 00:06:00,
2013-11-21 19:11:00,50.3,42.0,30.30,SSW,196,0.0,0.0,73,0.00,,---,0.00,VWS V14.01,2013-11-22 00:11:00,
2013-11-21 19:16:00,50.2,41.9,30.30,SSW,196,0.0,0.0,73,0.00,,---,0.00,VWS V14.01,2013-11-22 00:16:00,
2013-11-21 19:21:00,50.1,41.8,30.30,SSW,196,0.0,0.0,73,0.00,,---,0.00,VWS V14.01,2013-11-22 00:21:00,
2013-11-21 19:26:00,50.1,42.2,30.30,SSW,196,0.0,0.0,74,0.00,,---,0.00,VWS V14.01,2013-11-22 00:26:00,
2013-11-21 19:31:00,50.0,42.0,30.30,SSW,196,0.0,0.0,74,0.00,,---,0.00,VWS V14.01,2013-11-22 00:31:00,
2013-11-21 19:36:00,50.0,42.4,30.30,SSW,196,0.0,0.0,75,0.00,,---,0.00,VWS V14.01,2013-11-22 00:36:00,
2013-11-21 19:41:00,49.9,42.3,30.30,SSW,196,0.0,0.0,75,0.00,,---,0.00,VWS V14.01,2013-11-22 00:41:00,
2013-11-21 19:46:00,49.8,42.2,30.30,SSW,196,0.0,0.0,75,0.00,,---,0.00,VWS V14.01,2013-11-22 00:46:00,
2013-11-21 19:51:00,49.8,42.2,30.30,SSW,196,0.0,0.0,75,0.00,,---,0.00,VWS V14.01,2013-11-22 00:51:00,
2013-11-21 19:56:00,49.7,42.1,30.29,SSW,196,0.0,0.0,75,0.00,,---,0.00,VWS V14.01,2013-11-22 00:56:00,
2013-11-21 20:01:00,49.6,42.0,30.29,SSW,196,0.0,0.0,75,0.00,,---,0.00,VWS V14.01,2013-11-22 01:01:00,
2013-11-21 20:06:00,49.6,42.0,30.29,SSW,196,0.0,0.0,75,0.00,,---,0.00,VWS V14.01,2013-11-22 01:06:00,
2013-11-21 20:11:00,49.5,41.9,30.29,SSW,196,0.0,0.0,75,0.00,,---,0.00,VWS V14.01,2013-11-22 01:11:00,
2013-11-21 20:16:00,49.5,42.3,30.30,SSW,196,0.0,0.0,76,0.00,,---,0.00,VWS V14.01,2013-11-22 01:16:00,
2013-11-21 20:21:00,49.5,42.3,30.29,SSW,196,0.0,0.0,76,0.00,,---,0.00,VWS V14.01,2013-11-22 01:21:00,
2013-11-21 20:26:00,49.4,42.2,30.29,SSW,196,0.0,0.0,76,0.00,,---,0.00,VWS V14.01,2013-11-22 01:26:00,
2013-11-21 20:31:00,49.4,42.2,30.30,SSW,196,0.0,0.0,76,0.00,,---,0.00,VWS V14.01,2013-11-22 01:31:00,
2013-11-21 20:36:00,49.4,42.2,30.29,SSW,196,0.0,0.0,76,0.00,,---,0.00,VWS V14.01,2013-11-22 01:36:00,
2013-11-21 20:41:00,49.3,42.4,30.29,SSW,196,0.0,0.0,77,0.00,,---,0.00,VWS V14.01,2013-11-22 01:41:00,
2013-11-21 20:46:00,49.3,42.4,30.29,SSW,196,0.0,0.0,77,0.00,,---,0.00,VWS V14.01,2013-11-22 01:46:00,
2013-11-21 20:51:00,49.3,42.4,30.29,SSW,196,0.0,0.0,77,0.00,,---,0.00,VWS V14.01,2013-11-22 01:51:00,
2013-11-21 20:56:00,49.2,42.3,30.29,SSW,196,0.0,0.0,77,0.00,,---,0.00,VWS V14.01,2013-11-22 01:56:00,
2013-11-21 21:01:00,49.2,42.3,30.28,SSW,196,0.0,0.0,77,0.00,,---,0.00,VWS V14.01,2013-11-22 02:01:00,
2013-11-21 21:06:00,49.2,42.3,30.28,SSW,196,0.0,0.0,77,0.00,,---,0.00,VWS V14.01,2013-11-22 02:06:00,
2013-11-21 21:08:00,49.2,42.6,30.28,SSW,196,0.0,0.0,78,0.00,,---,0.00,VWS V14.01,2013-11-22 02:08:00,
2013-11-21 21:09:00,49.2,42.6,30.28,SSW,196,0.0,0.0,78,0.00,,---,0.00,VWS V14.01,2013-11-22 02:09:00,
2013-11-21 21:10:00,49.2,42.3,30.28,SSW,196,0.0,0.0,77,0.00,,---,0.00,VWS V14.01,2013-11-22 02:10:00,
2013-11-21 21:15:00,49.2,42.6,30.28,SSW,196,0.0,0.0,78,0.00,,---,0.00,VWS V14.01,2013-11-22 02:15:00,
2013-11-21 21:20:00,49.2,42.6,30.28,SSW,196,0.0,0.0,78,0.00,,---,0.00,VWS V14.01,2013-11-22 02:20:00,
2013-11-21 21:25:00,49.1,42.5,30.28,SSW,196,0.0,0.0,78,0.00,,---,0.00,VWS V14.01,2013-11-22 02:25:00,
2013-11-21 21:30:00,49.1,42.5,30.28,SSW,196,0.0,0.0,78,0.00,,---,0.00,VWS V14.01,2013-11-22 02:30:00,
2013-11-21 21:35:00,49.1,42.5,30.28,SSW,196,0.0,0.0,78,0.00,,---,0.00,VWS V14.01,2013-11-22 02:35:00,
2013-11-21 21:40:00,49.1,42.5,30.28,SSW,196,0.0,0.0,78,0.00,,---,0.00,VWS V14.01,2013-11-22 02:40:00,
2013-11-21 21:45:00,49.1,42.5,30.28,SSW,196,0.0,0.0,78,0.00,,---,0.00,VWS V14.01,2013-11-22 02:45:00,
2013-11-21 21:50:00,49.0,42.5,30.28,SSW,196,0.0,0.0,78,0.00,,---,0.00,VWS V14.01,2013-11-22 02:50:00,
2013-11-21 21:55:00,49.0,42.5,30.28,SSW,196,0.0,0.0,78,0.00,,---,0.00,VWS V14.01,2013-11-22 02:55:00,
2013-11-21 22:00:00,49.0,42.8,30.28,SSW,196,0.0,0.0,79,0.00,,---,0.00,VWS V14.01,2013-11-22 03:00:00,
2013-11-21 22:05:00,49.0,42.8,30.27,SSW,196,0.0,0.0,79,0.00,,---,0.00,VWS V14.01,2013-11-22 03:05:00,
2013-11-21 22:10:00,48.9,42.7,30.27,SSW,196,0.0,0.0,79,0.00,,---,0.00,VWS V14.01,2013-11-22 03:10:00,
2013-11-21 22:15:00,48.9,42.7,30.27,SSW,196,0.0,0.0,79,0.00,,---,0.00,VWS V14.01,2013-11-22 03:15:00,
2013-11-21 22:20:00,48.8,42.6,30.27,SSW,196,0.0,0.0,79,0.00,,---,0.00,VWS V14.01,2013-11-22 03:20:00,
2013-11-21 22:25:00,48.8,42.6,30.27,SSW,196,0.0,0.0,79,0.00,,---,0.00,VWS V14.01,2013-11-22 03:25:00,
2013-11-21 22:30:00,48.7,42.5,30.26,SSW,196,0.0,0.0,79,0.00,,---,0.00,VWS V14.01,2013-11-22 03:30:00,
2013-11-21 22:35:00,48.7,42.5,30.26,SSW,196,0.0,0.0,79,0.00,,---,0.00,VWS V14.01,2013-11-22 03:35:00,
2013-11-21 22:40:00,48.6,42.4,30.26,SSW,196,0.0,0.0,79,0.00,,---,0.00,VWS V14.01,2013-11-22 03:40:00,
2013-11-21 22:45:00,48.5,42.3,30.26,SSW,196,0.0,0.0,79,0.00,,---,0.00,VWS V14.01,2013-11-22 03:45:00,
2013-11-21 22:50:00,48.5,42.3,30.27,SSW,196,0.0,0.0,79,0.00,,---,0.00,VWS V14.01,2013-11-22 03:50:00,
2013-11-21 22:55:00,48.4,42.5,30.27,SSW,196,0.0,0.0,80,0.00,,---,0.00,VWS V14.01,2013-11-22 03:55:00,
2013-11-21 23:00:00,48.3,42.4,30.26,SSW,196,0.0,0.0,80,0.00,,---,0.00,VWS V14.01,2013-11-22 04:00:00,
2013-11-21 23:05:00,48.3,42.4,30.26,SSW,196,0.0,0.0,80,0.00,,---,0.00,VWS V14.01,2013-11-22 04:05:00,
2013-11-21 23:10:00,48.2,42.3,30.26,SSW,196,0.0,0.0,80,0.00,,---,0.00,VWS V14.01,2013-11-22 04:10:00,
2013-11-21 23:15:00,48.2,42.7,30.26,SSW,196,0.0,0.0,81,0.00,,---,0.00,VWS V14.01,2013-11-22 04:15:00,
2013-11-21 23:20:00,48.1,42.5,30.26,SSW,196,0.0,0.0,81,0.00,,---,0.00,VWS V14.01,2013-11-22 04:20:00,
2013-11-21 23:25:00,48.1,42.5,30.26,SSW,196,0.0,0.0,81,0.00,,---,0.00,VWS V14.01,2013-11-22 04:25:00,
2013-11-21 23:30:00,48.1,42.5,30.26,SSW,196,0.0,0.0,81,0.00,,---,0.00,VWS V14.01,2013-11-22 04:30:00,
2013-11-21 23:35:00,48.0,42.5,30.25,SSW,196,0.0,0.0,81,0.00,,---,0.00,VWS V14.01,2013-11-22 04:35:00,
2013-11-21 23:40:00,48.0,42.5,30.25,SSW,196,0.0,0.0,81,0.00,,---,0.00,VWS V14.01,2013-11-22 04:40:00,
2013-11-21 23:45:00,48.0,42.5,30.24,SSW,196,0.0,0.0,81,0.00,,---,0.00,VWS V14.01,2013-11-22 04:45:00,
2013-11-21 23:50:00,48.0,42.8,30.25,SSW,196,0.0,0.0,82,0.00,,---,0.00,VWS V14.01,2013-11-22 04:50:00,
2013-11-21 23:55:00,47.9,42.7,30.25,SSW,196,0.0,0.0,82,0.00,,---,0.00,VWS V14.01,2013-11-22 04:55:00,